Radiation Dose at Monitoring Post of Fukushima Daini Nuclear Power Station
Date,Time,MP-1(microSv/h),MP-2(microSv/h),MP-3(microSv/h),MP-4(microSv/h),MP-5(microSv/h),MP-6(microSv/h),MP-7(microSv/h),Wind Direction,Wind Velocity(m/s),Rain
2020/02/17,00:00,0.184,0.169,0.277,0.255,0.253,0.142,0.088,northwest,6.2,Yes
2020/02/17,00:10,0.183,0.169,0.275,0.255,0.253,0.142,0.088,northwest,6.6,Yes
2020/02/17,00:20,0.184,0.169,0.277,0.256,0.254,0.143,0.089,northwest,6.7,Yes
2020/02/17,00:30,0.185,0.171,0.279,0.257,0.256,0.145,0.091,north-northwest,7.0,Yes
2020/02/17,00:40,0.185,0.173,0.278,0.258,0.255,0.146,0.092,north-northwest,6.5,Yes
2020/02/17,00:50,0.186,0.173,0.278,0.258,0.255,0.146,0.092,north-northwest,6.5,Yes
2020/02/17,01:00,0.185,0.171,0.276,0.257,0.256,0.145,0.092,north-northwest,6.7,Yes
2020/02/17,01:10,0.184,0.170,0.277,0.257,0.254,0.145,0.091,north-northwest,6.8,Yes
2020/02/17,01:20,0.184,0.170,0.275,0.257,0.256,0.144,0.090,north-northwest,6.4,No
2020/02/17,01:30,0.183,0.169,0.274,0.256,0.253,0.144,0.090,north-northwest,6.8,No
2020/02/17,01:40,0.183,0.170,0.276,0.255,0.254,0.142,0.089,northwest,5.4,No
2020/02/17,01:50,0.183,0.168,0.274,0.254,0.253,0.142,0.088,north-northwest,5.8,No
2020/02/17,02:00,0.182,0.168,0.272,0.254,0.252,0.140,0.087,north-northwest,7.9,Yes
2020/02/17,02:10,0.181,0.167,0.273,0.254,0.252,0.140,0.087,north-northwest,8.4,Yes
2020/02/17,02:20,0.180,0.167,0.274,0.253,0.251,0.140,0.087,north-northwest,8.1,Yes
2020/02/17,02:30,0.181,0.167,0.272,0.251,0.251,0.139,0.086,north-northwest,8.7,Yes
2020/02/17,02:40,0.181,0.166,0.272,0.253,0.252,0.139,0.086,north-northwest,8.7,No
2020/02/17,02:50,0.180,0.165,0.272,0.251,0.251,0.140,0.087,north-northwest,8.1,Yes
2020/02/17,03:00,0.179,0.165,0.273,0.252,0.251,0.138,0.086,north-northwest,6.6,Yes
2020/02/17,03:10,0.180,0.166,0.273,0.252,0.252,0.139,0.085,north-northwest,6.4,Yes
2020/02/17,03:20,0.179,0.165,0.271,0.252,0.251,0.138,0.086,north-northwest,6.6,No
2020/02/17,03:30,0.179,0.165,0.273,0.251,0.251,0.138,0.086,north-northwest,5.6,No
2020/02/17,03:40,0.180,0.166,0.272,0.251,0.251,0.138,0.085,north-northwest,5.8,No
2020/02/17,03:50,0.179,0.165,0.271,0.251,0.250,0.138,0.085,north-northwest,5.6,No
2020/02/17,04:00,0.179,0.165,0.270,0.252,0.250,0.138,0.085,north-northwest,5.4,No
2020/02/17,04:10,0.180,0.165,0.272,0.252,0.251,0.138,0.085,north-northwest,4.9,No
2020/02/17,04:20,0.179,0.166,0.271,0.253,0.249,0.138,0.085,north,5.3,No
2020/02/17,04:30,0.179,0.165,0.272,0.250,0.251,0.138,0.085,north,6.4,No
2020/02/17,04:40,0.179,0.165,0.274,0.250,0.250,0.138,0.084,north,6.8,No
2020/02/17,04:50,0.180,0.165,0.271,0.253,0.251,0.138,0.084,north-northwest,6.3,No
2020/02/17,05:00,0.178,0.165,0.271,0.251,0.251,0.138,0.085,north-northwest,5.9,No
2020/02/17,05:10,0.179,0.165,0.272,0.250,0.251,0.138,0.085,north-northwest,5.8,No
2020/02/17,05:20,0.180,0.165,0.272,0.251,0.251,0.137,0.085,north-northwest,6.6,No
2020/02/17,05:30,0.179,0.164,0.272,0.252,0.250,0.138,0.085,north-northwest,5.7,No
2020/02/17,05:40,0.178,0.165,0.270,0.251,0.251,0.138,0.085,north-northwest,5.7,Yes
2020/02/17,05:50,0.180,0.165,0.272,0.252,0.251,0.138,0.085,north-northwest,5.1,Yes
2020/02/17,06:00,0.180,0.166,0.272,0.253,0.252,0.140,0.088,north-northwest,5.0,Yes
2020/02/17,06:10,0.181,0.167,0.273,0.254,0.253,0.142,0.089,north-northwest,5.7,Yes
2020/02/17,06:20,0.184,0.170,0.277,0.255,0.256,0.145,0.091,northwest,4.9,Yes
2020/02/17,06:30,0.187,0.173,0.280,0.257,0.256,0.147,0.094,north-northwest,3.1,Yes
2020/02/17,06:40,0.187,0.174,0.279,0.259,0.257,0.147,0.094,north,2.5,Yes
2020/02/17,06:50,0.191,0.177,0.281,0.260,0.259,0.149,0.096,north,1.7,Yes
2020/02/17,07:00,0.191,0.177,0.281,0.260,0.259,0.149,0.096,north,1.1,Yes
2020/02/17,07:10,0.191,0.177,0.281,0.261,0.260,0.151,0.098,north,2.1,Yes
2020/02/17,07:20,0.191,0.177,0.280,0.261,0.260,0.148,0.096,north-northeast,1.1,No
2020/02/17,07:30,0.189,0.174,0.279,0.259,0.258,0.148,0.095,north-northwest,1.5,No
2020/02/17,07:40,0.186,0.173,0.277,0.257,0.256,0.145,0.093,north-northwest,2.4,No
2020/02/17,07:50,0.185,0.172,0.276,0.256,0.254,0.145,0.092,north-northwest,2.0,Yes
2020/02/17,08:00,0.184,0.172,0.276,0.255,0.254,0.145,0.092,north-northwest,1.5,Yes
2020/02/17,08:10,0.185,0.171,0.277,0.257,0.255,0.144,0.092,northwest,1.9,Yes
2020/02/17,08:20,0.184,0.172,0.275,0.255,0.255,0.144,0.091,northwest,2.2,Yes
2020/02/17,08:30,0.186,0.173,0.275,0.256,0.255,0.143,0.091,northwest,1.7,Yes
2020/02/17,08:40,0.185,0.172,0.277,0.256,0.256,0.146,0.092,north,2.2,Yes
2020/02/17,08:50,0.187,0.174,0.278,0.258,0.257,0.147,0.094,west,1.2,Yes
2020/02/17,09:00,0.190,0.176,0.281,0.259,0.258,0.149,0.096,north-northwest,2.0,Yes
2020/02/17,09:10,0.191,0.177,0.280,0.260,0.259,0.149,0.097,north-northwest,1.7,Yes
2020/02/17,09:20,0.189,0.176,0.280,0.259,0.259,0.150,0.098,north-northwest,1.5,Yes
2020/02/17,09:30,0.190,0.176,0.279,0.261,0.259,0.149,0.097,northeast,0.7,Yes
2020/02/17,09:40,0.191,0.177,0.279,0.260,0.259,0.151,0.098,-,CALM,Yes
2020/02/17,09:50,0.191,0.177,0.280,0.261,0.261,0.151,0.100,east-northeast,1.7,Yes
2020/02/17,10:00,0.192,0.178,0.281,0.262,0.260,0.152,0.101,east-northeast,3.0,Yes
2020/02/17,10:10,0.192,0.178,0.282,0.261,0.261,0.152,0.099,east-northeast,0.8,Yes
2020/02/17,10:20,0.191,0.178,0.284,0.261,0.262,0.152,0.101,east-southeast,1.1,Yes
2020/02/17,10:30,0.194,0.179,0.282,0.263,0.262,0.154,0.101,east,1.1,Yes
2020/02/17,10:40,0.194,0.180,0.283,0.263,0.261,0.154,0.101,east-southeast,1.3,Yes
2020/02/17,10:50,0.192,0.179,0.285,0.263,0.264,0.155,0.101,east,1.6,Yes
2020/02/17,11:00,0.193,0.180,0.282,0.262,0.264,0.153,0.102,east,1.4,Yes
2020/02/17,11:10,0.191,0.179,0.280,0.261,0.262,0.152,0.100,southeast,1.4,Yes
2020/02/17,11:20,0.190,0.177,0.281,0.262,0.262,0.152,0.100,east-southeast,1.4,Yes
2020/02/17,11:30,0.190,0.176,0.281,0.258,0.260,0.151,0.098,south-southeast,1.0,Yes
2020/02/17,11:40,0.188,0.176,0.279,0.258,0.260,0.149,0.097,east-southeast,2.8,Yes
2020/02/17,11:50,0.186,0.174,0.278,0.260,0.260,0.148,0.095,southeast,2.3,Yes
2020/02/17,12:00,0.186,0.174,0.276,0.258,0.258,0.149,0.096,southeast,1.9,Yes
2020/02/17,12:10,0.187,0.173,0.276,0.258,0.258,0.149,0.096,southeast,1.7,Yes
2020/02/17,12:20,0.187,0.174,0.277,0.259,0.260,0.150,0.097,east-southeast,2.4,Yes
2020/02/17,12:30,0.188,0.174,0.277,0.259,0.260,0.149,0.098,east-southeast,2.7,Yes
2020/02/17,12:40,0.186,0.173,0.276,0.257,0.257,0.147,0.095,southeast,2.9,Yes
2020/02/17,12:50,0.184,0.171,0.274,0.256,0.257,0.145,0.094,southeast,2.7,No
2020/02/17,13:00,0.184,0.170,0.274,0.254,0.255,0.144,0.092,southeast,2.7,No
2020/02/17,13:10,0.181,0.168,0.270,0.252,0.254,0.143,0.090,south-southeast,3.0,No
2020/02/17,13:20,0.180,0.167,0.270,0.253,0.252,0.141,0.089,south-southeast,3.0,No
2020/02/17,13:30,0.178,0.167,0.269,0.250,0.252,0.141,0.088,south-southeast,3.0,No
2020/02/17,13:40,0.179,0.165,0.269,0.249,0.252,0.140,0.088,southeast,2.8,No
2020/02/17,13:50,0.179,0.165,0.269,0.250,0.250,0.139,0.085,-,CALM,No
2020/02/17,14:00,0.178,0.166,0.268,0.250,0.250,0.137,0.086,-,CALM,No
2020/02/17,14:10,0.178,0.164,0.268,0.251,0.249,0.137,0.085,-,-,No
2020/02/17,14:20,0.177,0.165,0.269,0.249,0.250,0.138,0.086,-,-,No
2020/02/17,14:30,0.178,0.164,0.267,0.250,0.250,0.139,0.085,-,-,No
2020/02/17,14:40,0.176,0.163,0.269,0.250,0.250,0.138,0.086,-,-,No
2020/02/17,14:50,0.177,0.164,0.269,0.248,0.251,0.137,0.084,-,-,No
2020/02/17,15:00,0.177,0.163,0.268,0.250,0.250,0.137,0.085,-,-,No
2020/02/17,15:10,0.177,0.163,0.270,0.249,0.250,0.137,0.085,-,-,No
2020/02/17,15:20,0.177,0.164,0.267,0.248,0.250,0.137,0.085,-,-,No
2020/02/17,15:30,0.177,0.163,0.267,0.250,0.248,0.137,0.085,southeast,5.1,No
2020/02/17,15:40,0.177,0.164,0.269,0.248,0.249,0.138,0.084,east-southeast,4.5,No
2020/02/17,15:50,0.177,0.163,0.267,0.249,0.250,0.137,0.085,southeast,3.9,No
2020/02/17,16:00,0.177,0.163,0.268,0.249,0.249,0.138,0.084,east-southeast,3.3,No
2020/02/17,16:10,0.177,0.164,0.270,0.249,0.251,0.138,0.084,south,1.9,No
2020/02/17,16:20,0.176,0.164,0.268,0.249,0.249,0.137,0.085,southeast,2.6,No
2020/02/17,16:30,0.177,0.163,0.268,0.249,0.249,0.137,0.085,southeast,2.9,No
2020/02/17,16:40,0.177,0.164,0.269,0.248,0.251,0.136,0.084,south-southeast,2.0,No
2020/02/17,16:50,0.177,0.163,0.267,0.248,0.251,0.137,0.084,south-southeast,2.5,No
2020/02/17,17:00,0.176,0.163,0.268,0.248,0.249,0.136,0.085,south-southeast,2.2,No
2020/02/17,17:10,0.177,0.163,0.269,0.250,0.250,0.137,0.084,south-southeast,3.4,No
2020/02/17,17:20,0.177,0.163,0.269,0.249,0.249,0.137,0.085,south-southeast,2.5,Yes
2020/02/17,17:30,0.177,0.164,0.268,0.250,0.251,0.138,0.085,south,2.0,Yes
2020/02/17,17:40,0.178,0.167,0.270,0.252,0.252,0.139,0.086,south-southeast,2.3,Yes
2020/02/17,17:50,0.179,0.166,0.271,0.252,0.252,0.140,0.088,south,1.8,Yes
2020/02/17,18:00,0.180,0.167,0.271,0.253,0.254,0.141,0.089,south-southwest,2.4,Yes
2020/02/17,18:10,0.183,0.168,0.273,0.254,0.255,0.143,0.090,west-southwest,2.0,Yes
2020/02/17,18:20,0.183,0.171,0.275,0.255,0.256,0.145,0.091,west-southwest,3.0,Yes
2020/02/17,18:30,0.183,0.170,0.274,0.255,0.255,0.145,0.091,west,3.3,Yes
2020/02/17,18:40,0.184,0.170,0.274,0.255,0.255,0.144,0.092,west-northwest,2.7,Yes
2020/02/17,18:50,0.184,0.171,0.275,0.255,0.254,0.145,0.092,-,CALM,Yes
2020/02/17,19:00,0.185,0.171,0.273,0.254,0.255,0.144,0.092,northeast,2.5,Yes
2020/02/17,19:10,0.183,0.169,0.272,0.253,0.254,0.143,0.092,east,2.0,Yes
2020/02/17,19:20,0.183,0.171,0.274,0.255,0.254,0.143,0.091,east,1.4,Yes
2020/02/17,19:30,0.183,0.169,0.274,0.253,0.253,0.144,0.091,east-northeast,1.1,Yes
2020/02/17,19:40,0.185,0.170,0.273,0.255,0.253,0.144,0.091,-,CALM,Yes
2020/02/17,19:50,0.183,0.170,0.273,0.254,0.253,0.143,0.092,-,CALM,Yes
2020/02/17,20:00,0.185,0.169,0.273,0.254,0.255,0.143,0.091,north-northeast,1.2,Yes
2020/02/17,20:10,0.183,0.169,0.274,0.253,0.253,0.143,0.091,north-northeast,2.9,Yes
2020/02/17,20:20,0.183,0.168,0.273,0.253,0.254,0.143,0.091,north-northeast,4.0,Yes
2020/02/17,20:30,0.183,0.170,0.273,0.255,0.253,0.144,0.090,north,3.2,Yes
2020/02/17,20:40,0.185,0.170,0.274,0.254,0.253,0.144,0.092,north,2.8,Yes
2020/02/17,20:50,0.184,0.171,0.274,0.254,0.253,0.143,0.092,north,2.5,Yes
2020/02/17,21:00,0.183,0.171,0.274,0.253,0.255,0.144,0.092,north-northwest,3.7,Yes
2020/02/17,21:10,0.184,0.171,0.276,0.255,0.255,0.144,0.093,north-northwest,3.9,Yes
2020/02/17,21:20,0.186,0.172,0.275,0.255,0.254,0.144,0.092,northwest,4.6,Yes
2020/02/17,21:30,0.187,0.174,0.276,0.256,0.255,0.146,0.094,north-northeast,4.7,Yes
2020/02/17,21:40,0.187,0.174,0.275,0.256,0.255,0.146,0.094,north-northeast,5.7,Yes
2020/02/17,21:50,0.187,0.175,0.278,0.256,0.257,0.149,0.096,north,4.8,Yes
2020/02/17,22:00,0.188,0.175,0.278,0.257,0.257,0.149,0.097,northwest,2.3,Yes
2020/02/17,22:10,0.187,0.176,0.277,0.258,0.258,0.149,0.097,northwest,3.1,Yes
2020/02/17,22:20,0.187,0.175,0.277,0.258,0.258,0.149,0.097,northwest,4.3,Yes
2020/02/17,22:30,0.188,0.176,0.278,0.257,0.257,0.149,0.097,northwest,4.6,Yes
2020/02/17,22:40,0.187,0.175,0.276,0.257,0.257,0.149,0.096,north-northwest,4.2,Yes
2020/02/17,22:50,0.187,0.175,0.277,0.257,0.259,0.148,0.096,north-northwest,2.9,Yes
2020/02/17,23:00,0.188,0.175,0.277,0.256,0.258,0.149,0.096,northwest,3.1,Yes
2020/02/17,23:10,0.187,0.176,0.277,0.257,0.259,0.150,0.097,northwest,3.0,Yes
2020/02/17,23:20,0.188,0.175,0.278,0.258,0.258,0.151,0.097,northwest,2.7,Yes
2020/02/17,23:30,0.188,0.176,0.278,0.261,0.259,0.150,0.098,northwest,2.8,Yes
2020/02/17,23:40,0.189,0.178,0.278,0.259,0.260,0.152,0.098,north-northwest,5.9,Yes
2020/02/17,23:50,0.188,0.177,0.279,0.259,0.261,0.153,0.100,north-northwest,3.1,Yes
